TimeCST,TemperatureF,Dew PointF,Humidity,Sea Level PressureIn,VisibilityMPH,Wind Direction,Wind SpeedMPH,Gust SpeedMPH,PrecipitationIn,Events,Conditions,WindDirDegrees,DateUTC
12:54 AM,-9.0,-16.1,71,30.34,10.0,SE,5.8,-,N/A,,Clear,130,2014-01-07 06:54:00
1:54 AM,-9.0,-16.1,71,30.30,10.0,SE,8.1,-,N/A,,Clear,130,2014-01-07 07:54:00
2:54 AM,-8.0,-15.0,71,30.29,10.0,Calm,Calm,-,N/A,,Mostly Cloudy,0,2014-01-07 08:54:00
3:54 AM,-9.0,-15.0,75,30.25,10.0,Calm,Calm,-,N/A,,Clear,0,2014-01-07 09:54:00
4:54 AM,-6.0,-13.0,72,30.20,10.0,SE,3.5,-,N/A,,Partly Cloudy,140,2014-01-07 10:54:00
5:54 AM,1.0,-7.1,69,30.17,10.0,SSE,8.1,-,N/A,,Overcast,150,2014-01-07 11:54:00
6:54 AM,3.9,-6.0,64,30.16,10.0,SE,6.9,-,N/A,,Overcast,130,2014-01-07 12:54:00
7:54 AM,6.1,-2.9,67,30.16,10.0,South,8.1,-,N/A,,Overcast,180,2014-01-07 13:54:00
8:54 AM,8.1,-0.9,67,30.14,10.0,South,8.1,-,N/A,,Overcast,170,2014-01-07 14:54:00
9:54 AM,12.0,1.9,64,30.14,10.0,SSE,5.8,-,N/A,,Scattered Clouds,160,2014-01-07 15:54:00
10:54 AM,15.1,3.0,59,30.17,10.0,Calm,Calm,-,N/A,,Clear,0,2014-01-07 16:54:00
11:54 AM,17.1,3.9,56,30.14,10.0,NNW,4.6,-,N/A,,Clear,330,2014-01-07 17:54:00
12:54 PM,21.0,5.0,50,30.12,10.0,North,6.9,-,N/A,,Clear,360,2014-01-07 18:54:00
1:54 PM,21.9,6.1,51,30.12,10.0,North,8.1,-,N/A,,Clear,350,2014-01-07 19:54:00
2:54 PM,23.0,7.0,50,30.16,10.0,North,5.8,-,N/A,,Clear,360,2014-01-07 20:54:00
3:54 PM,19.9,5.0,52,30.18,10.0,North,8.1,-,N/A,,Mostly Cloudy,10,2014-01-07 21:54:00
4:54 PM,19.9,6.1,55,30.20,10.0,North,8.1,-,N/A,,Overcast,360,2014-01-07 22:54:00
5:54 PM,18.0,6.1,60,30.21,10.0,North,12.7,-,N/A,,Overcast,10,2014-01-07 23:54:00
6:54 PM,19.0,6.1,57,30.23,10.0,North,9.2,-,N/A,,Overcast,10,2014-01-08 00:54:00
7:54 PM,18.0,5.0,57,30.25,10.0,North,9.2,-,N/A,,Overcast,10,2014-01-08 01:54:00
8:54 PM,18.0,6.1,60,30.26,10.0,North,6.9,-,N/A,,Overcast,10,2014-01-08 02:54:00
9:54 PM,18.0,6.1,60,30.26,10.0,North,8.1,-,N/A,,Overcast,360,2014-01-08 03:54:00
10:54 PM,18.0,6.1,60,30.29,10.0,Calm,Calm,-,N/A,,Overcast,0,2014-01-08 04:54:00
11:54 PM,17.1,6.1,62,30.30,10.0,NNW,5.8,-,N/A,,Overcast,340,2014-01-08 05:54:00